Columbia Owens, SC

5:14 PM EST on November 14, 2019 (GMT -0500)
Columbia Owens Downtown

Weather History for KCUB - September, 2019

Change the Weather History Date:

Friday, September 6, 2019

  Actual Average Record
Temperature  
Mean Temperature 84 °F 78 °F  
Max Temperature 94 °F 88 °F 96 °F (1999)
Min Temperature 74 °F 69 °F 60 °F (2000)
Degree Days  
Heating Degree Days 0 0  
Month to date heating degree days 0 0  
Since 1 July heating degree days 0 0  
Cooling Degree Days 19 13  
Month to date cooling degree days 105 83  
Year to date cooling degree days 2228 1901  
Growing Degree Days 34 (Base 50)    
Moisture  
Dew Point 65 °F    
Average Humidity 56    
Maximum Humidity 76    
Minimum Humidity 33    
Precipitation  
Precipitation 0.00 in 0.14 in 0.16 in (2003)
Month to date precipitation 0.61 0.85  
Year to date precipitation 23.79 32.70  
Sea Level Pressure  
Sea Level Pressure 29.83 in    
Wind  
Wind Speed 5 mph (WNW)    
Max Wind Speed 15 mph    
Max Gust Speed 22 mph    
Visibility 10 miles    
Events      
T = Trace of Precipitation, MM = Missing Value Source: NWS Daily Summary

Daily Weather History Graph

Daily Weather History Graph

Search for Another Location

Airport or City:

Astronomy

Sep. 06, 2019 Rise Set
Actual Time 7:00 AM EDT 7:43 PM EDT
Civil Twilight 6:35 AM EDT 8:08 PM EDT
Nautical Twilight 6:05 AM EDT 8:38 PM EDT
Astronomical Twilight 5:35 AM EDT 9:08 PM EDT
Moon 2:47 PM EDT (9/6) 12:18 AM EDT (9/6)
Length of Visible Light 13h 32m
Length of Day
12h 42m
First Quarter, 55% of the Moon is Illuminated
Sep 6
First Quarter
Sep 14
Full
Sep 21
Last Quarter
Sep 28
New
Oct 5
First Quarter

Hourly Weather History & Observations

Time (EDT) Temp. Heat Index Dew Point Humidity Pressure Visibility Wind Dir Wind Speed Gust Speed Precip Events Conditions
12:53 AM 80.1 °F 82.1 °F 66.0 °F 62% 29.77 in 10.0 mi Variable 6.9 mph - N/A   Clear
1:53 AM 79.0 °F - 64.9 °F 62% 29.78 in 10.0 mi Variable 5.8 mph - N/A   Clear
2:53 AM 78.1 °F - 64.9 °F 64% 29.78 in 10.0 mi NW 5.8 mph - N/A   Clear
3:53 AM 77.0 °F - 64.9 °F 66% 29.79 in 10.0 mi NNW 5.8 mph - N/A   Clear
5:53 AM 77.0 °F - 64.9 °F 66% 29.80 in 10.0 mi NNW 5.8 mph - N/A   Clear
6:53 AM 75.9 °F - 64.9 °F 69% 29.82 in 10.0 mi Variable 3.5 mph - N/A   Clear
7:53 AM 75.9 °F - 64.9 °F 69% 29.84 in 10.0 mi NNW 3.5 mph - N/A   Clear
8:53 AM 79.0 °F - 66.0 °F 64% 29.86 in 10.0 mi NNW 4.6 mph - N/A   Clear
10:53 AM 84.9 °F 87.1 °F 66.0 °F 53% 29.87 in 10.0 mi NW 5.8 mph - N/A   Clear
11:53 AM 87.1 °F 88.9 °F 64.9 °F 48% 29.86 in 10.0 mi Variable 3.5 mph - N/A   Clear
12:53 PM 90.0 °F 91.7 °F 64.9 °F 43% 29.85 in 10.0 mi Variable 5.8 mph - N/A   Clear
1:53 PM 91.0 °F 93.0 °F 64.9 °F 42% 29.84 in 10.0 mi Variable 5.8 mph - N/A   Clear
2:53 PM 91.9 °F 93.3 °F 64.0 °F 39% 29.82 in 10.0 mi NW 9.2 mph 17.3 mph N/A   Clear
3:53 PM 93.0 °F 93.0 °F 61.0 °F 34% 29.81 in 10.0 mi Variable 6.9 mph 18.4 mph N/A   Clear
4:53 PM 93.0 °F 93.8 °F 62.1 °F 36% 29.81 in 10.0 mi WNW 10.4 mph 16.1 mph N/A   Clear
5:53 PM 91.9 °F 93.3 °F 64.0 °F 39% 29.81 in 10.0 mi WSW 6.9 mph - N/A   Clear
6:53 PM 91.0 °F 93.0 °F 64.9 °F 42% 29.81 in 10.0 mi WSW 8.1 mph - N/A   Clear
7:53 PM 87.1 °F 89.2 °F 66.0 °F 49% 29.83 in 10.0 mi SW 3.5 mph - N/A   Clear
8:53 PM 82.9 °F 85.8 °F 68.0 °F 60% 29.84 in 10.0 mi Calm Calm - N/A   Clear
9:53 PM 80.1 °F 82.7 °F 68.0 °F 67% 29.86 in 10.0 mi Calm Calm - N/A   Clear
10:53 PM 77.0 °F - 69.1 °F 76% 29.86 in 10.0 mi Calm Calm - N/A   Clear
11:53 PM 77.0 °F - 68.0 °F 74% 29.87 in 10.0 mi Calm Calm - N/A   Clear